Weather History for Point Lay, AK

Change the Weather History Date:

Thursday, May 8, 2014

  Actual Average Record
Temperature  
Mean Temperature 20 °F -  
Max Temperature 29 °F 23 °F 37 °F (2002)
Min Temperature 11 °F 14 °F -7 °F (2011)
Degree Days  
Heating Degree Days 45    
Moisture  
Dew Point 16 °F    
Average Humidity 83    
Maximum Humidity 92    
Minimum Humidity 72    
Precipitation  
Precipitation 0.00 in - - ()
Sea Level Pressure  
Sea Level Pressure 30.00 in    
Wind  
Wind Speed 8 mph (East)    
Max Wind Speed 12 mph    
Max Gust Speed -    
Visibility 10 miles    
Events      
Averages and records for this station are not official NWS values.
T = Trace of Precipitation, MM = Missing Value Source: NWS Daily Summary

Daily Weather History Graph

Daily Weather History Graph

Search for Another Location

Airport:

Trip Planner

Search our weather history database for the weather conditions in past years. The results will help you decide how hot, cold, wet, or windy it might be!

Date:

Astronomy

May. 08, 2014 Rise Set
Actual Time 4:42 AM AKDT 1:00 AM AKDT
Civil Twilight Sun does not rise Sun does not rise
Nautical Twilight Sun does not rise Sun does not rise
Astronomical Twilight Sun does not rise Sun does not rise
Moon 3:30 PM AKDT (5/8) 5:09 AM AKDT (5/8)
Length of Visible Light 24h 00m
Length of Day
20h 18m
Waxing Gibbous, 66% of the Moon is Illuminated
May 8
Waxing Gibbous
May 14
Full
May 21
Last Quarter
May 28
New
Jun 5
First Quarter

Hourly Weather History & Observations

Time (AKDT) Temp. Windchill Dew Point Humidity Pressure Visibility Wind Dir Wind Speed Gust Speed Precip Events Conditions
12:56 AM 19.0 °F 9.0 °F 17.1 °F 92% 29.98 in 10.0 mi ENE 8.1 mph - N/A   Clear
1:56 AM 17.1 °F 5.8 °F 14.0 °F 88% 29.98 in 10.0 mi East 9.2 mph - N/A   Clear
2:56 AM 14.0 °F 3.9 °F 10.0 °F 84% 29.98 in 10.0 mi East 6.9 mph - N/A   Clear
3:56 AM 14.0 °F 5.1 °F 10.0 °F 84% 29.99 in 10.0 mi East 5.8 mph - N/A   Clear
4:56 AM 12.0 °F 1.5 °F 10.0 °F 92% 29.99 in 10.0 mi ENE 6.9 mph - N/A   Clear
5:56 AM 11.1 °F -2.4 °F 8.1 °F 87% 29.98 in 10.0 mi East 10.4 mph - N/A   Clear
6:56 AM 12.0 °F -2.0 °F 9.1 °F 88% 29.98 in 10.0 mi ENE 11.5 mph - N/A   Clear
7:56 AM 12.0 °F 0.5 °F 9.1 °F 88% 29.99 in 10.0 mi ENE 8.1 mph - N/A   Clear
8:56 AM 15.1 °F 1.8 °F 11.1 °F 84% 29.99 in 10.0 mi ENE 11.5 mph - N/A   Clear
9:56 AM 16.2 °F 4.7 °F 11.1 °F 81% 29.99 in 10.0 mi East 9.2 mph - N/A   Clear
10:56 AM 20.1 °F 8.8 °F 15.1 °F 81% 29.99 in 10.0 mi East 10.4 mph - N/A   Clear
11:56 AM 21.0 °F 10.6 °F 16.2 °F 81% 30.00 in 10.0 mi ENE 9.2 mph - N/A   Clear
12:56 PM 23.0 °F 13.9 °F 18.1 °F 82% 30.00 in 10.0 mi ENE 8.1 mph - N/A   Clear
1:56 PM 26.1 °F 16.8 °F 19.0 °F 75% 30.00 in 10.0 mi East 9.2 mph - N/A   Clear
2:56 PM 27.1 °F 19.7 °F 19.0 °F 72% 30.01 in 10.0 mi East 6.9 mph - N/A   Clear
3:56 PM 28.0 °F 20.0 °F 21.0 °F 75% 30.01 in 10.0 mi East 8.1 mph - N/A   Clear
4:56 PM 28.0 °F 19.3 °F 22.1 °F 78% 30.01 in 10.0 mi East 9.2 mph - N/A   Clear
5:56 PM 29.1 °F 21.3 °F 23.0 °F 78% 30.01 in 10.0 mi East 8.1 mph - N/A   Clear
6:56 PM 29.1 °F 21.3 °F 23.0 °F 78% 30.02 in 10.0 mi East 8.1 mph - N/A   Clear
7:56 PM 28.0 °F 20.0 °F 23.0 °F 81% 30.03 in 10.0 mi East 8.1 mph - N/A   Clear
8:56 PM 27.1 °F 18.2 °F 22.1 °F 81% 30.03 in 10.0 mi East 9.2 mph - N/A   Clear
9:56 PM 25.2 °F 18.3 °F 21.0 °F 84% 30.04 in 10.0 mi ESE 5.8 mph - N/A   Clear
10:56 PM 24.1 °F 17.0 °F 20.1 °F 85% 30.04 in 10.0 mi SE 5.8 mph - N/A   Clear
11:56 PM 22.1 °F 15.9 °F 19.0 °F 88% 30.05 in 10.0 mi ESE 4.6 mph - N/A   Clear